When you browse on this site, cookies collect data to enhance your experience and personalize the content and advertising you see.
Visit our Privacy Policy to learn more. By continuing to use the site, you agree to this use of cookies and data.
  • In United Kingdom
  • List of Countries
  • For 7 days
  • Water Temperature
  • Weather Map
  • Weather Widgets
  • user-avatar
    Login

    Hourly Weather Leeds

    Today, 17 September, Tuesday

    Time Temperature Precipitation Wind Pressure Humidity
    00:00 +10°C° 0 mm 2 mps 763 mmHg 84%
    01:00 +10°C° 0 mm 2 mps 763 mmHg 85%
    02:00 +9°C° 0 mm 2 mps 763 mmHg 85%
    03:00 +9°C° 0 mm 2 mps 763 mmHg 85%
    04:00 +9°C° 0 mm 2 mps 763 mmHg 85%
    05:00 +9°C° 0 mm 2 mps 763 mmHg 84%
    06:00 +9°C° 0 mm 2 mps 763 mmHg 87%
    07:00 +10°C° 0 mm 3 mps 764 mmHg 81%
    08:00 +12°C° 0 mm 3 mps 764 mmHg 76%
    09:00 +13°C° 0 mm 4 mps 764 mmHg 70%
    10:00 +14°C° 0 mm 4 mps 764 mmHg 65%
    11:00 +16°C° 0 mm 3 mps 764 mmHg 60%
    12:00 +16°C° 0 mm 3 mps 765 mmHg 55%
    13:00 +16°C° 0 mm 3 mps 765 mmHg 54%
    14:00 +17°C° 0 mm 3 mps 765 mmHg 52%
    15:00 +17°C° 0 mm 3 mps 765 mmHg 51%
    16:00 +14°C° 0 mm 3 mps 765 mmHg 56%
    17:00 +14°C° 0 mm 2 mps 765 mmHg 61%
    18:00 +13°C° 0 mm 2 mps 766 mmHg 67%
    19:00 +12°C° 0 mm 2 mps 766 mmHg 69%
    20:00 +11°C° 0 mm 1 mps 767 mmHg 71%
    21:00 +10°C° 0 mm 1 mps 767 mmHg 72%
    22:00 +10°C° 0 mm 1 mps 767 mmHg 73%
    23:00 +9°C° 0 mm 0 mps 767 mmHg 74%

    Tomorrow, 18 September, Wednesday

    Time Temperature Precipitation Wind Pressure Humidity
    00:00 +8°C° 0 mm 0 mps 767 mmHg 74%
    01:00 +9°C° 0 mm 0 mps 767 mmHg 73%
    02:00 +9°C° 0 mm 0 mps 767 mmHg 72%
    03:00 +10°C° 0 mm 1 mps 767 mmHg 71%
    04:00 +10°C° 0 mm 1 mps 767 mmHg 73%
    05:00 +10°C° 0 mm 1 mps 767 mmHg 74%
    06:00 +9°C° 0 mm 1 mps 767 mmHg 76%
    07:00 +11°C° 0 mm 1 mps 767 mmHg 73%
    08:00 +12°C° 0 mm 2 mps 768 mmHg 70%
    09:00 +14°C° 0 mm 2 mps 768 mmHg 67%
    10:00 +15°C° 0 mm 2 mps 767 mmHg 63%
    11:00 +16°C° 0 mm 2 mps 767 mmHg 59%
    12:00 +18°C° 0 mm 2 mps 767 mmHg 55%
    13:00 +18°C° 0 mm 3 mps 767 mmHg 57%
    14:00 +18°C° 0 mm 3 mps 767 mmHg 58%
    15:00 +19°C° 0 mm 3 mps 767 mmHg 60%
    16:00 +18°C° 0 mm 3 mps 767 mmHg 66%
    17:00 +16°C° 0 mm 2 mps 767 mmHg 72%
    18:00 +15°C° 0 mm 2 mps 766 mmHg 78%
    19:00 +14°C° 0 mm 2 mps 767 mmHg 80%
    20:00 +14°C° 0 mm 2 mps 767 mmHg 82%
    21:00 +13°C° 0 mm 2 mps 768 mmHg 84%
    22:00 +13°C° 0 mm 1 mps 768 mmHg 84%
    23:00 +13°C° 0 mm 1 mps 768 mmHg 85%

    Day after tomorrow, 19 September, Thursday

    Time Temperature Precipitation Wind Pressure Humidity
    00:00 +12°C° 0 mm 1 mps 768 mmHg 85%
    01:00 +12°C° 0 mm 1 mps 768 mmHg 86%
    02:00 +12°C° 0 mm 1 mps 767 mmHg 86%
    03:00 +12°C° 0 mm 1 mps 767 mmHg 87%
    04:00 +12°C° 0 mm 1 mps 767 mmHg 87%
    05:00 +11°C° 0 mm 1 mps 768 mmHg 87%
    06:00 +11°C° 0 mm 1 mps 768 mmHg 87%
    07:00 +13°C° 0 mm 1 mps 768 mmHg 82%
    08:00 +15°C° 0 mm 1 mps 768 mmHg 77%
    09:00 +15°C° 0 mm 0 mps 768 mmHg 72%
    10:00 +18°C° 0 mm 1 mps 768 mmHg 68%
    11:00 +20°C° 0 mm 1 mps 768 mmHg 64%
    12:00 +21°C° 0 mm 1 mps 768 mmHg 60%
    13:00 +21°C° 0 mm 1 mps 768 mmHg 60%
    14:00 +21°C° 0 mm 1 mps 768 mmHg 59%
    15:00 +22°C° 0 mm 1 mps 767 mmHg 59%
    16:00 +20°C° 0 mm 1 mps 767 mmHg 64%
    17:00 +19°C° 0 mm 1 mps 767 mmHg 69%
    18:00 +18°C° 0 mm 1 mps 767 mmHg 75%
    19:00 +16°C° 0 mm 1 mps 767 mmHg 77%
    20:00 +16°C° 0 mm 1 mps 767 mmHg 80%
    21:00 +14°C° 0 mm 0 mps 767 mmHg 82%
    22:00 +14°C° 0 mm 0 mps 767 mmHg 83%
    23:00 +13°C° 0 mm 0 mps 767 mmHg 84%

    20 September, Friday

    Time Temperature Precipitation Wind Pressure Humidity
    00:00 +13°C° 0 mm 0 mps 767 mmHg 85%
    01:00 +13°C° 0 mm 0 mps 767 mmHg 85%
    02:00 +12°C° 0 mm 0 mps 767 mmHg 86%
    03:00 +13°C° 0 mm 1 mps 766 mmHg 86%
    04:00 +13°C° 0 mm 1 mps 766 mmHg 87%
    05:00 +13°C° 0 mm 1 mps 766 mmHg 87%
    06:00 +13°C° 0 mm 1 mps 765 mmHg 88%
    07:00 +14°C° 0 mm 1 mps 765 mmHg 82%
    08:00 +16°C° 0 mm 1 mps 765 mmHg 76%
    09:00 +18°C° 0 mm 2 mps 765 mmHg 71%
    10:00 +19°C° 0 mm 2 mps 765 mmHg 67%
    11:00 +20°C° 0 mm 3 mps 764 mmHg 63%
    12:00 +21°C° 0 mm 3 mps 764 mmHg 60%
    13:00 +21°C° 0 mm 4 mps 764 mmHg 59%
    14:00 +21°C° 0 mm 4 mps 763 mmHg 58%
    15:00 +21°C° 0 mm 4 mps 762 mmHg 57%
    16:00 +20°C° 0 mm 4 mps 762 mmHg 61%
    17:00 +19°C° 0 mm 4 mps 762 mmHg 65%
    18:00 +18°C° 0 mm 3 mps 761 mmHg 68%
    19:00 +17°C° 0 mm 4 mps 761 mmHg 69%
    20:00 +15°C° 0 mm 4 mps 761 mmHg 69%
    21:00 +14°C° 0 mm 4 mps 761 mmHg 70%
    22:00 +13°C° 0 mm 4 mps 760 mmHg 72%
    23:00 +13°C° 0 mm 4 mps 760 mmHg 74%

    21 September, Saturday

    Time Temperature Precipitation Wind Pressure Humidity
    00:00 +12°C° 0 mm 3 mps 759 mmHg 76%
    01:00 +12°C° 0 mm 3 mps 759 mmHg 79%
    02:00 +12°C° 0 mm 3 mps 758 mmHg 82%
    03:00 +11°C° 0 mm 3 mps 758 mmHg 84%
    04:00 +11°C° 0 mm 3 mps 757 mmHg 84%
    05:00 +11°C° 0 mm 3 mps 757 mmHg 83%
    06:00 +11°C° 0 mm 3 mps 756 mmHg 83%
    07:00 +12°C° 0 mm 3 mps 756 mmHg 76%
    08:00 +14°C° 0 mm 4 mps 755 mmHg 69%
    09:00 +15°C° 0 mm 4 mps 755 mmHg 62%
    10:00 +16°C° 0 mm 5 mps 754 mmHg 58%
    11:00 +19°C° 0 mm 5 mps 754 mmHg 54%
    12:00 +20°C° 0 mm 5 mps 753 mmHg 50%
    13:00 +20°C° 0 mm 5 mps 753 mmHg 50%
    14:00 +21°C° 0 mm 5 mps 752 mmHg 49%
    15:00 +22°C° 0 mm 5 mps 751 mmHg 48%
    16:00 +21°C° 0.1 mm 5 mps 751 mmHg 53%
    17:00 +19°C° 0.1 mm 4 mps 751 mmHg 57%
    18:00 +18°C° 0.1 mm 4 mps 750 mmHg 62%
    19:00 +18°C° 0.1 mm 4 mps 750 mmHg 64%
    20:00 +18°C° 0.1 mm 4 mps 750 mmHg 66%
    21:00 +18°C° 0.1 mm 4 mps 750 mmHg 68%
    22:00 +18°C° 0.1 mm 3 mps 749 mmHg 72%
    23:00 +18°C° 0.1 mm 3 mps 749 mmHg 76%

    22 September, Sunday

    Time Temperature Precipitation Wind Pressure Humidity
    00:00 +18°C° 0.1 mm 3 mps 749 mmHg 81%
    01:00 +18°C° 0 mm 3 mps 748 mmHg 83%
    02:00 +18°C° 0 mm 4 mps 748 mmHg 85%
    03:00 +17°C° 0 mm 4 mps 748 mmHg 88%
    04:00 +17°C° 0 mm 4 mps 748 mmHg 88%
    05:00 +17°C° 0 mm 4 mps 748 mmHg 89%
    06:00 +17°C° 0 mm 4 mps 749 mmHg 89%
    07:00 +18°C° 0 mm 4 mps 749 mmHg 84%
    08:00 +18°C° 0 mm 4 mps 749 mmHg 78%
    09:00 +19°C° 0 mm 4 mps 750 mmHg 73%
    10:00 +19°C° 0 mm 5 mps 750 mmHg 68%
    11:00 +20°C° 0 mm 5 mps 750 mmHg 64%
    12:00 +20°C° 0 mm 5 mps 750 mmHg 60%
    13:00 +19°C° 0.6 mm 5 mps 749 mmHg 66%
    14:00 +17°C° 0.6 mm 6 mps 749 mmHg 71%
    15:00 +16°C° 0.6 mm 6 mps 749 mmHg 77%
    16:00 +16°C° 0.3 mm 6 mps 749 mmHg 77%
    17:00 +15°C° 0.3 mm 5 mps 749 mmHg 76%
    18:00 +15°C° 0.3 mm 4 mps 750 mmHg 76%
    19:00 +14°C° 0 mm 4 mps 750 mmHg 77%
    20:00 +13°C° 0 mm 5 mps 751 mmHg 78%
    21:00 +13°C° 0 mm 5 mps 751 mmHg 79%
    22:00 +13°C° 0 mm 5 mps 752 mmHg 78%
    23:00 +12°C° 0 mm 5 mps 752 mmHg 78%
    Show more